User: anonymous   Login
Location: Unspecified
(0.0000°N, 0.0000°E)
Time: 09:29:49
(UTC+00:00)
Language:

Explorer 11/Cluster Stage 4 - Orbit

View from above orbital plane
View from above orbital plane
View from above satellite
View from above satellite

Ground track
Ground track

The orbit data is extracted from the following two-line orbital elements,

1 00107U 61013A   24112.55645806  .00006594  00000-0  83665-3 0  9993
2 00107  28.7856 150.2518 0522449  17.1674 344.5880 14.14996428164663
Epoch (UTC): 21 April 2024 13:21:17
Eccentricity: 0.0522449
inclination: 28.7856°
perigee height: 465 km
apogee height: 1219 km
right ascension of ascending node: 150.2518°
argument of perigee: 17.1674°
revolutions per day: 14.14996428
mean anomaly at epoch: 344.5880°
orbit number at epoch: 16466

The dashed part of the orbit path shows where the satellite is in the earth's shadow,  

DLR